Location: Newark
(35.5300°N, 14.3000°E)
Time: 04:38:04
(UTC+00:00)

Explorer 11/Cluster Stage 4 - Pass Details

Date: 22 November 2019
Orbit: 467 x 1259 km, 28.8° (Epoch: 12 December)

Event Time Altitude Azimuth Distance (km) Brightness Sun altitude
Rises 19:19:35 0° 257° (WSW) 3,044 10.4 -41.9°
Reaches altitude 10° 19:21:52 10° 250° (WSW) 2,241 9.5 -42.3°
Enters shadow 19:22:06 11° 249° (WSW) 2,158 9.3 -42.4°
